Location: Terra Rouge Observatory
(46.0000°N, 62.7500°W)
Time: 09:30:08
(UTC-03:00)

Daily predictions for brighter satellites

Satellite Brightness Start Highest point End
(mag) Time Altitude Azimuth Time Altitude Azimuth Time Altitude Azimuth
Cosmos-2242 3.2 21:34:28 10° N 21:38:50 59° ENE 21:43:10 10° SSE
Aureole 1 Rocket 2.9 21:35:55 10° SSW 21:39:13 74° WNW 21:43:21 10° NNE
Cosmos 1331 Rocket 4.4 21:34:34 10° NNW 21:39:41 53° ENE 21:44:47 10° SE
Meteor 1-24 Rocket 4.0 21:35:04 10° S 21:41:02 64° E 21:46:58 10° NNE
Cosmos 494 Rocket 4.5 21:39:21 10° S 21:44:15 42° ESE 21:49:11 10° NE
H-2A R/B 2.3 21:39:29 10° SSE 21:44:43 64° ENE 21:50:06 10° N
Cosmos 2082 Rocket 4.1 21:40:55 10° N 21:44:51 18° NE 21:48:45 10° E
Cosmos 1269 Rocket 4.0 21:42:28 10° SSW 21:47:45 76° ESE 21:53:05 10° NNE
Cosmos 2263 Rocket 4.2 21:44:10 10° WSW 21:49:21 35° NW 21:54:32 10° NNE
ATLAS 2AS CENTAUR R/B 3.1 21:43:11 10° SSW 21:50:57 70° ESE 21:59:02 10° NE
Helios 1B rocket 4.2 21:52:18 10° NE 21:54:46 15° E 21:57:12 10° SE
Helios 1A 4.1 21:52:04 10° SE 21:55:46 31° ENE 21:59:31 10° N
Cosmos 1842 Rocket 4.4 21:54:02 10° N 21:58:03 35° ENE 22:02:00 10° SE
Cosmos 1908 3.3 21:54:53 10° N 21:58:45 66° E 22:02:36 10° SSE
NOSS 3-2 (C) 4.5 21:51:48 10° NW 21:59:02 55° NE 22:07:00 10° ESE
Cosmos 1553 Rocket 4.2 21:55:11 10° SSE 22:01:01 51° E 22:06:52 10° NNE
Meteor 2-5 Rocket 4.5 21:56:58 10° SSW 22:02:50 61° WNW 22:08:40 10° N
In-Cosmos 22 4.5 21:57:54 10° SSW 22:03:27 75° WNW 22:09:12 10° N
Cosmos 1340 3.1 22:00:39 10° N 22:04:20 46° ENE 22:07:44 12° SSE
Iridium 4 Rocket 4.2 22:00:08 10° SSW 22:05:38 59° W 22:10:42 10° N
CSL-04 DEB 4.4 22:03:59 10° SSE 22:07:50 63° ENE 22:11:45 10° N
Cosmos 1302 Rocket 4.4 22:03:24 10° NNW 22:08:37 54° ENE 22:13:21 12° SE
MetOp-B 4.2 22:03:17 10° SSE 22:08:39 83° WSW 22:14:03 10° NNW
DMSP B5D2-2 4.4 22:04:45 10° NNE 22:09:48 46° E 22:14:48 10° S
Cosmos 1953 Rocket 4.3 22:06:56 10° SSW 22:11:13 57° WNW 22:15:34 10° N
ERS-1 Rocket 3.0 22:07:01 10° SSE 22:12:03 81° ENE 22:17:07 10° NNW
Meteor 2-1 Rocket 4.4 22:09:08 10° N 22:15:06 88° E 22:21:00 10° S
Cosmos 1437 4.3 22:13:00 10° NNW 22:15:54 32° W 22:18:46 10° SSW
USA 215 4.3 22:12:07 10° SSE 22:18:00 35° SW 22:23:56 10° WNW
Meteor 2-10 4.2 22:13:04 10° N 22:18:31 74° ENE 22:23:51 11° SSE
Cosmos 1674 2.8 22:17:09 10° SSW 22:20:57 80° W 22:24:49 10° N
Cosmos 2251 Rocket 3.9 22:17:49 10° S 22:22:54 47° ESE 22:27:59 10° NNE
Cosmos 1300 3.4 22:20:12 10° N 22:23:50 39° ENE 22:26:29 16° SE
CENTAUR R/B 3.8 22:17:08 10° NNW 22:24:31 46° NE 22:32:35 10° ESE
Terra 2.6 22:23:37 14° SE 22:27:17 38° ENE 22:31:41 10° N
Cosmos 2221 3.2 22:24:17 10° N 22:28:22 39° ENE 22:31:18 17° SE
NOSS 3-4 (A) 3.9 22:22:48 10° S 22:28:27 39° ESE 22:34:19 10° NE
NOSS 3-4 (C) 3.9 22:22:55 10° S 22:28:32 39° ESE 22:34:24 10° NE
Cosmos 1726 2.3 22:25:31 10° NNW 22:29:17 75° W 22:32:39 13° S
Resurs 01 Rocket 4.3 22:27:13 10° WSW 22:29:33 14° W 22:31:55 10° WNW
RESURS DK-1 4.4 22:30:13 12° ESE 22:30:41 12° ESE 22:32:17 10° ENE
Cosmos 921 Rocket 4.1 22:28:00 10° NNW 22:32:14 41° WSW 22:36:27 10° S
Meteor 1-29 3.9 22:37:35 10° NE 22:40:37 29° E 22:41:59 22° SE
ARGOS 4.5 22:37:55 10° SSW 22:42:52 36° W 22:47:51 10° NNW
CZ-2C R/B 3.8 22:38:29 16° SE 22:42:55 51° ENE 22:48:25 10° N
SL-8 R/B 3.7 22:38:54 10° WSW 22:43:45 87° SSE 22:48:37 10° ENE
Cosmos 2278 Rocket 2.3 22:38:23 10° S 22:43:54 57° ESE 22:49:28 10° NNE
Cosmos 1461 3.3 22:41:56 10° SSW 22:46:28 56° ESE 22:51:09 10° NE
APEX 3.5 22:50:06 10° NW 22:53:08 48° WSW 22:55:16 21° S
Cosmos 1745 Rocket 4.2 22:47:24 10° NNW 22:53:43 73° W 22:59:18 13° S
Meteor 1-21 Rocket 4.3 22:47:57 10° S 22:53:50 87° E 22:59:38 10° NNE
NOSS 2-2 (D) 4.0 22:55:16 23° SSE 22:56:57 33° ESE 23:00:51 10° NE
IGS 5A 3.4 22:56:50 22° SSE 22:59:29 90° ENE 23:03:40 10° NNW
COSMOS 2406 4.2 22:54:23 10° NW 22:59:44 40° WSW 23:04:22 13° S
Cosmos 220 Rocket 4.3 22:56:18 10° SSW 23:00:30 64° WNW 23:04:43 10° NNE
Cosmos 1844 Rocket 4.1 22:55:37 10° SW 23:00:56 40° NW 23:06:16 10° NNE
ATLAS 3B R/B 3.2 23:02:05 10° NW 23:08:20 46° WSW 23:12:52 18° S
CARTOSAT-1 3.6 23:06:45 22° S 23:09:27 74° WSW 23:13:49 10° NNW
SPOT 5 3.8 23:06:25 14° S 23:10:34 48° W 23:15:43 10° NNW
SL-14 R/B 3.7 23:09:27 15° SSW 23:12:34 61° W 23:16:30 10° N
ATLAS 5 CENTAUR R/B 1.7 23:14:23 15° SSW 23:17:56 58° ESE 23:22:48 10° NE
Lacrosse 5 3.7 23:14:57 10° W 23:19:33 33° NNW 23:24:08 10° NE
Cosmos 1076 Rocket 3.4 23:18:58 26° S 23:21:19 79° E 23:25:34 10° N
NOSS 2-2 (C) 3.3 23:20:40 22° SSW 23:22:58 60° ESE 23:27:18 10° NE
SL-08 ROCKET BODY 4.4 23:17:04 10° N 23:23:19 81° E 23:27:10 25° SSE
H-2A R/B 4.3 23:20:49 10° SW 23:24:35 19° W 23:28:25 10° NW
SL-27 R/B 2.7 23:21:46 10° NNW 23:25:24 62° ENE 23:26:36 37° SE
Cosmos 1709 Rocket 4.0 23:20:47 10° N 23:27:01 80° W 23:31:05 23° S
Cosmos 2297 4.0 23:25:02 25° S 23:28:10 50° ESE 23:33:40 10° NE
Cosmos 2082 Rocket 2.2 23:24:04 10° NNW 23:29:50 86° ENE 23:33:00 28° SSE
Helios 1B rocket 3.2 23:26:21 10° N 23:30:21 51° WNW 23:33:40 14° SW
Cosmos 1833 Rocket 2.6 23:24:55 10° NNW 23:30:34 84° WSW 23:33:38 28° SSE
Mayak 0.6 23:28:32 10° NE 23:31:07 16° E 23:31:36 16° E
ALOS 2 4.4 23:29:09 15° E 23:31:20 21° ENE 23:34:37 10° NNE
Cosmos 1408 Rocket 4.1 23:30:35 31° SE 23:32:07 43° E 23:36:21 10° NNE
Cosmos 1766 Rocket 3.8 23:31:49 33° SSE 23:33:34 54° E 23:37:57 10° NNE
Cosmos 1626 2.4 23:31:41 27° SSW 23:33:35 66° W 23:37:19 10° N
CZ-2C R/B 2.6 23:31:04 10° NNE 23:36:31 74° ESE 23:39:35 26° S
Meteor 1-27 4.4 23:31:40 10° N 23:37:32 71° ENE 23:40:39 29° SSE
Cosmos 1703 3.3 23:36:57 40° SSE 23:38:09 62° E 23:42:00 10° NNE
YAOGAN 11 4.5 23:36:51 28° S 23:39:09 61° W 23:43:40 10° NNW
Cosmos 2074 Rocket 4.2 23:34:56 10° N 23:41:07 59° ENE 23:44:29 28° SSE
ATLAS 2AS CENTAUR R/B 4.4 23:35:06 10° WSW 23:42:35 41° NW 23:50:10 10° NNE
Cosmos 2058 3.5 23:41:41 34° SE 23:42:42 40° E 23:46:34 10° NNE
Meteor 2-19 Rocket 4.5 23:36:44 10° N 23:42:54 82° W 23:46:29 27° S
Cosmos 2151 3.9 23:41:58 29° ESE 23:42:58 33° E 23:46:46 10° NNE
Aureole 3 Rocket 4.0 23:37:55 18° S 23:43:39 83° W 23:49:01 10° N
EO 1 Delta rocket 4.4 23:40:28 10° N 23:47:18 84° E 23:50:27 27° S
H-2A R/B 4.0 23:46:13 14° E 23:48:07 18° ENE 23:50:57 10° NNE
Cosmos 1943 Rocket 4.2 23:48:43 11° ESE 23:49:28 11° E 23:51:10 10° ENE
